Date,TemperatureHighF,TemperatureAvgF,TemperatureLowF,DewpointHighF,DewpointAvgF,DewpointLowF,HumidityHigh,HumidityAvg,HumidityLow,PressureMaxIn,PressureMinIn,WindSpeedMaxMPH,WindSpeedAvgMPH,GustSpeedMaxMPH,PrecipitationSumIn
2014-1-1,19,12,6,9,6,1,88,76,57,28.08,27.82,10,3,21,0.00
2014-1-2,7,4,0,2,0,-3,87,83,77,28.09,27.64,2,0,4,0.00
2014-1-3,5,-2,-12,-2,-8,-18,87,75,57,28.09,27.55,6,2,18,0.00
2014-1-13,42,37,27,34,30,24,87,76,67,27.78,27.58,5,2,10,0.00
2014-1-14,42,40,37,40,37,34,97,89,73,27.58,27.41,4,1,13,0.50
2014-1-15,45,36,30,36,32,29,97,86,63,27.71,27.51,6,1,9,0.24
2014-1-16,33,32,30,32,30,28,96,94,90,27.68,27.62,2,0,6,0.00
2014-1-17,41,32,25,30,27,24,96,82,55,27.67,27.60,5,1,9,0.10
2014-1-18,36,27,21,30,25,20,96,92,75,27.65,27.40,4,0,6,0.01
2014-1-20,32,22,4,29,17,-3,90,80,70,27.63,27.21,7,3,19,0.00
2014-1-21,6,1,-3,-4,-7,-9,79,67,55,27.78,27.62,5,2,12,0.00
2014-1-22,10,-2,-9,-5,-11,-16,75,65,50,27.68,27.45,6,3,16,0.00
2014-1-23,14,1,-8,-2,-8,-13,81,67,48,27.83,27.64,5,2,11,0.01
2014-1-24,12,1,-7,-4,-8,-12,80,66,42,27.94,27.79,7,2,13,0.01
2014-1-25,21,19,19,19,14,-100,91,89,86,27.12,27.00,4,2,9,0.00
2014-1-26,19,11,3,16,-2,-10,89,57,40,27.50,27.01,15,5,26,0.00
2014-1-29,19,3,-5,-2,-6,-8,87,71,30,27.89,27.63,7,1,17,0.00
2014-1-30,19,18,18,5,4,3,57,54,51,27.93,27.82,4,3,8,0.00
2014-1-31,35,25,16,20,14,6,79,62,47,27.89,27.70,8,2,17,0.00
2014-2-1,40,28,17,31,21,-100,95,79,54,28.05,27.71,4,1,10,0.00
2014-2-2,41,35,31,35,32,25,94,87,76,27.82,27.58,4,1,9,0.03
2014-2-3,31,26,17,25,18,14,88,72,56,28.01,27.82,4,1,12,0.03
2014-2-4,30,20,9,16,13,7,92,72,52,28.16,28.01,5,0,10,0.00
2014-2-5,23,21,19,21,18,15,93,88,73,28.04,27.47,6,1,10,0.00
2014-2-6,23,12,4,15,7,0,88,79,54,27.98,27.68,2,0,4,0.00
2014-2-7,24,11,-3,12,4,-6,89,73,52,27.90,27.82,7,2,16,0.00
2014-2-8,15,11,7,5,1,-1,71,64,57,27.96,27.86,6,2,15,0.00
2014-2-11,9,5,1,1,-2,-5,77,72,68,28.17,28.08,2,1,9,0.00
2014-2-12,27,11,-2,4,-2,-7,81,59,35,28.26,28.09,6,2,8,0.00
2014-2-13,26,19,5,25,14,-3,95,82,61,28.09,26.91,5,1,7,0.00
2014-2-14,28,26,24,27,23,20,96,87,79,27.40,27.01,9,3,20,0.00
2014-2-15,32,26,22,27,21,-100,94,86,71,27.55,27.33,4,1,13,0.01
2014-2-16,24,17,10,20,7,-3,85,64,45,27.71,27.34,9,4,22,0.01
2014-2-17,21,10,2,-2,-4,-6,71,54,33,28.08,27.71,6,2,16,0.00
2014-2-18,21,12,-5,19,7,-10,93,82,54,28.04,27.72,13,3,19,0.00
2014-2-19,28,20,9,26,18,6,95,92,84,27.80,27.50,10,1,14,0.00
2014-2-20,45,34,26,32,28,25,97,78,50,27.93,27.57,4,2,11,0.29
2014-2-21,35,33,30,34,32,29,97,95,94,27.85,27.46,11,5,23,0.73
2014-2-22,46,38,30,31,27,22,97,68,45,27.63,27.52,11,5,25,0.20
2014-2-25,21,16,8,9,6,3,88,66,50,27.65,27.57,13,3,21,0.00
2014-2-26,21,9,-2,12,2,-5,90,74,41,27.61,27.46,11,3,22,0.00
2014-2-27,22,11,3,11,1,-9,85,63,39,27.57,27.28,9,3,21,0.00
2014-2-28,18,8,-2,-6,-9,-16,67,47,28,28.12,27.57,7,3,17,0.00
2014-3-1,29,12,-6,13,-2,-100,79,56,32,28.12,27.77,7,1,11,0.00
2014-3-2,28,24,13,21,13,3,77,65,56,27.80,27.72,5,1,14,0.00
2014-3-3,19,11,2,3,-3,-9,76,56,33,27.99,27.76,6,1,13,0.00
2014-3-4,25,9,-9,12,-3,-13,85,63,27,28.06,27.94,3,1,10,0.00
2014-3-5,23,15,7,14,9,-5,90,76,56,28.25,27.96,3,1,11,0.00
2014-3-6,30,13,0,-4,-9,-13,59,41,17,28.35,28.23,4,1,10,0.00
2014-3-7,40,24,-4,12,6,-9,78,48,20,28.10,27.70,4,1,10,0.00
2014-3-8,46,26,13,28,16,-100,86,69,43,27.68,27.49,5,2,14,0.00
2014-3-9,31,23,17,15,12,8,76,64,38,27.69,27.61,4,1,10,0.00
2014-3-17,26,17,2,-1,-4,-8,68,40,28,27.91,27.78,5,2,11,0.00
2014-3-18,39,23,1,4,-4,-12,74,37,12,28.06,27.93,4,1,9,0.00
2014-3-19,34,22,13,17,8,1,75,58,39,28.09,27.99,8,2,16,0.00
2014-3-21,31,30,27,18,17,15,61,57,55,27.73,27.68,4,2,9,0.00
2014-3-22,39,29,17,31,21,13,89,74,57,27.76,27.39,11,2,25,0.00
2014-3-23,32,26,10,24,11,-100,81,57,32,27.85,27.63,6,3,18,0.00
2014-3-24,27,15,3,1,-2,-5,72,48,30,27.88,27.76,6,2,14,0.00
2014-3-25,33,14,-2,13,2,-6,86,63,32,27.83,27.70,7,2,14,0.00
2014-4-1,45,41,38,30,29,29,71,64,54,27.84,27.78,2,1,4,0.00
2014-4-2,54,42,33,36,30,27,80,62,37,27.83,27.75,5,2,9,0.00
2014-4-3,46,37,29,27,24,23,80,62,42,27.90,27.80,4,1,13,0.00
2014-4-4,46,34,23,32,25,20,95,71,45,27.90,27.65,12,5,22,0.09
2014-4-5,43,36,33,38,30,24,96,81,57,27.67,27.45,9,4,28,0.23
2014-4-6,50,38,31,25,20,-100,74,54,31,27.92,27.67,8,3,20,0.02
2014-4-7,55,40,26,30,26,23,89,62,36,27.97,27.82,5,2,10,0.00
2014-4-18,47,43,34,30,28,25,77,57,44,28.23,27.98,9,3,13,0.01
2014-4-19,48,35,28,32,27,25,93,75,49,28.19,27.90,4,0,9,0.00
2014-4-20,61,43,27,27,21,-100,88,50,17,28.27,28.06,5,1,10,0.00
2014-4-21,66,44,32,31,27,25,78,56,22,28.05,27.58,3,1,7,0.00
2014-4-22,68,56,44,51,40,30,94,60,30,27.58,27.22,4,1,9,0.05
2014-4-23,52,46,39,49,41,32,93,82,70,27.43,27.20,7,3,23,0.02
2014-4-24,50,42,33,32,27,22,73,56,42,27.72,27.44,9,5,26,0.01
2014-4-25,59,46,34,28,25,18,71,47,21,27.78,27.55,6,1,11,0.00
2014-4-26,51,42,39,40,37,29,97,87,43,27.60,27.51,6,2,11,0.27
2014-4-27,43,37,35,39,34,-100,97,92,84,27.73,27.60,3,1,8,0.13
2014-5-3,59,53,47,46,45,41,96,77,55,27.52,27.48,6,1,15,0.13
2014-5-4,52,46,42,46,40,-100,97,83,66,27.48,27.28,10,4,21,0.28
2014-5-5,53,47,42,45,42,39,97,83,64,27.65,27.40,5,2,14,0.14
2014-5-6,49,42,38,39,34,28,92,77,44,27.83,27.62,3,1,9,0.00
2014-5-7,44,44,43,30,30,29,58,58,57,27.83,27.83,1,0,4,0.00
2014-5-13,52,51,49,45,44,43,81,78,75,28.07,28.04,4,2,9,0.00
2014-5-14,71,56,48,51,45,40,80,69,46,28.07,27.98,7,3,10,0.00
2014-5-15,74,60,52,64,56,48,92,84,70,28.04,27.92,6,2,13,0.00
2014-5-16,67,64,62,63,61,59,96,91,79,27.93,27.70,9,5,20,0.06
2014-5-17,65,59,49,63,51,41,97,77,46,27.85,27.58,8,3,15,1.76
2014-5-18,65,50,43,41,34,-100,85,60,29,27.93,27.83,5,1,12,0.20
2014-5-19,60,49,40,44,32,-100,79,60,42,27.89,27.81,5,1,15,0.00
2014-5-20,71,57,44,46,40,-100,88,59,31,27.85,27.74,6,2,18,0.00
2014-5-21,75,60,40,54,43,39,96,60,28,27.78,27.66,7,2,13,0.00
2014-5-22,61,54,49,56,50,-100,97,88,73,27.71,27.63,7,2,12,0.30
2014-5-23,55,54,51,54,52,50,98,96,91,27.77,27.63,7,3,9,0.43
2014-5-24,65,55,50,58,52,49,97,89,62,27.84,27.76,3,1,7,0.26
2014-5-25,75,60,47,57,49,-100,98,74,33,27.86,27.75,5,1,10,0.07
2014-5-26,74,65,53,59,54,50,91,70,45,27.76,27.58,6,2,21,0.01
2014-5-27,75,57,46,61,53,44,97,88,57,27.73,27.60,12,3,19,0.13
2014-5-28,52,48,44,47,45,43,95,89,80,28.00,27.72,8,4,14,0.02
2014-5-29,64,50,40,49,42,39,97,79,45,28.04,27.89,4,1,8,0.01
2014-5-30,69,55,47,56,49,44,97,82,48,27.90,27.78,4,1,11,0.52
2014-5-31,67,55,46,55,51,45,98,87,58,28.10,27.87,4,1,9,0.46
2014-6-1,76,58,45,58,44,-100,98,69,30,28.15,27.98,3,1,8,0.01
2014-6-2,82,61,46,58,51,44,94,72,43,27.99,27.77,2,0,5,0.01
2014-6-3,82,68,54,63,57,51,96,72,45,27.79,27.64,11,4,20,0.01
2014-6-4,72,61,55,62,56,52,96,85,68,27.68,27.52,5,2,10,0.03
2014-6-5,68,60,55,59,57,54,96,89,70,27.56,27.45,4,1,7,0.03
2014-6-6,66,58,53,57,54,52,97,88,70,27.60,27.52,4,2,10,0.07
2014-6-9,83,72,60,66,61,57,91,71,45,27.77,27.71,4,1,7,0.00
2014-6-10,79,66,59,63,59,55,93,79,55,27.91,27.73,10,1,16,0.00
2014-6-11,70,59,50,57,53,49,97,83,56,27.97,27.91,9,2,17,0.20
2014-6-12,60,56,52,56,54,51,97,92,86,27.95,27.85,9,4,17,0.43
2014-6-13,60,57,56,58,56,55,98,97,93,27.84,27.60,9,4,15,0.89
2014-6-14,71,62,56,61,57,54,99,86,56,27.66,27.58,4,1,11,0.06
2014-6-17,86,77,61,66,62,57,89,61,38,27.84,27.60,4,2,8,0.00
2014-6-18,77,70,66,67,64,60,96,79,57,27.75,27.47,5,3,16,0.28
2014-6-19,75,68,59,61,53,45,90,62,35,27.78,27.74,5,2,15,0.01
2014-6-20,67,59,49,49,45,42,84,61,41,27.78,27.73,5,2,15,0.00
2014-6-21,70,56,42,49,45,41,97,71,45,27.78,27.70,4,1,14,0.00
2014-6-22,76,62,44,57,48,-100,96,66,43,27.83,27.74,4,1,8,0.00
2014-6-23,80,65,48,61,55,47,96,72,45,27.92,27.83,3,1,8,0.00
2014-6-24,77,68,60,64,61,57,93,78,62,27.91,27.74,4,2,12,0.00
2014-6-25,75,69,64,71,65,59,98,88,79,27.73,27.65,2,0,3,1.62
2014-6-26,71,66,59,69,65,58,99,95,80,27.81,27.60,2,1,5,2.26
2014-6-27,82,68,54,65,58,53,99,74,42,27.99,27.82,4,1,8,0.01
2014-6-28,85,71,53,66,57,52,98,67,39,28.09,28.00,3,1,6,0.00
2014-6-29,85,67,54,67,53,-100,93,69,47,28.05,27.86,3,1,8,0.00
2014-6-30,83,80,72,71,69,67,86,71,64,27.83,27.69,4,2,9,0.00
2014-7-1,88,78,64,74,70,63,97,79,58,27.71,27.54,6,2,13,0.00
2014-7-2,90,76,68,74,70,67,98,84,54,27.73,27.59,6,1,11,0.34
2014-7-3,88,73,66,73,68,65,99,87,51,27.78,27.67,5,1,11,0.98
2014-7-4,71,66,59,68,64,58,98,96,87,27.79,27.71,2,1,6,1.48
2014-7-5,77,65,56,57,52,47,95,64,41,27.81,27.65,6,4,17,0.04
2014-7-6,80,72,62,58,55,51,73,57,42,27.78,27.65,5,3,17,0.00
2014-7-7,80,70,57,71,63,55,95,81,59,27.64,27.47,5,2,10,0.37
2014-7-8,83,76,66,74,70,65,98,82,72,27.56,27.40,4,2,9,0.01
2014-7-9,78,69,64,67,64,62,98,86,63,27.73,27.44,7,3,14,1.14
2014-7-10,77,66,58,62,58,53,98,78,46,27.97,27.73,4,1,9,0.09
2014-7-11,79,67,51,61,56,50,98,72,46,28.05,27.97,2,1,6,0.01
2014-7-12,83,68,52,66,60,51,98,77,53,28.03,27.89,3,1,9,0.00
2014-7-13,80,70,64,70,65,62,93,82,71,27.88,27.64,5,2,12,0.02
2014-7-14,84,76,65,70,68,64,97,77,54,27.70,27.62,5,2,13,0.02
2014-7-15,82,74,65,72,69,64,97,85,68,27.63,27.53,4,1,10,0.11
2014-7-16,76,68,63,69,64,58,98,89,62,27.66,27.55,2,0,5,0.38
2014-7-17,76,66,56,60,57,54,96,75,51,27.88,27.67,5,2,9,0.01
2014-7-18,78,64,51,61,56,50,98,78,50,28.04,27.88,3,1,9,0.00
2014-7-19,76,61,53,61,56,52,98,86,55,28.09,28.04,3,0,3,0.00
2014-7-21,68,67,67,63,62,62,84,84,84,27.95,27.95,2,0,2,0.00
2014-7-22,77,66,60,68,63,59,97,88,74,27.95,27.92,2,1,2,0.00
2014-7-24,75,67,57,62,57,52,94,72,57,27.72,27.65,3,1,9,1.22
2014-7-25,77,60,49,63,55,48,97,84,56,27.78,27.72,3,0,7,0.00
2014-7-26,74,64,55,63,59,54,97,84,67,27.76,27.66,3,1,7,0.00
2014-7-27,77,65,58,69,62,57,98,87,75,27.68,27.45,3,1,8,0.62
2014-7-28,74,66,62,69,64,61,99,97,84,27.46,27.26,4,1,10,1.07
2014-7-29,72,65,56,60,56,53,96,76,53,27.74,27.37,4,1,10,0.19
2014-7-30,73,62,52,59,55,51,98,83,55,27.83,27.76,3,1,7,0.00
2014-7-31,73,59,52,62,55,51,98,87,65,27.93,27.83,6,1,11,0.00
2014-8-1,80,65,54,66,59,53,98,86,56,28.02,27.94,3,1,7,0.01
2014-8-2,77,69,62,67,63,61,98,84,62,28.01,27.92,4,1,7,0.01
2014-8-3,79,70,56,67,64,55,98,83,65,27.94,27.83,2,1,5,0.00
2014-8-4,79,68,61,70,65,60,99,90,66,27.84,27.80,2,0,5,0.11
2014-8-5,83,68,60,68,63,59,98,87,54,27.84,27.71,4,1,7,0.10
2014-8-6,76,68,60,64,60,53,98,77,57,27.72,27.62,3,1,11,0.13
2014-8-10,69,66,65,61,60,60,87,83,76,27.93,27.91,2,0,3,0.00
2014-8-11,83,71,56,69,62,55,97,76,45,27.96,27.88,4,1,6,0.00
2014-8-12,76,71,62,65,63,61,96,76,61,27.91,27.82,8,4,13,0.00
2014-8-13,61,60,60,59,59,58,97,95,93,27.50,27.47,5,1,9,1.21
2014-8-14,59,58,58,58,57,57,98,98,98,27.49,27.47,2,1,7,1.22
2014-8-17,58,58,57,55,55,54,91,90,89,27.64,27.63,2,0,4,0.07
2014-8-18,66,59,57,55,54,51,92,84,58,27.64,27.60,4,2,11,0.06
2014-8-21,58,57,56,57,56,55,97,96,95,27.90,27.90,2,1,3,0.51
2014-8-22,63,59,55,62,58,54,98,96,93,27.93,27.89,3,1,5,1.59
2014-8-23,64,62,59,60,59,58,97,92,88,27.95,27.94,0,0,2,0.00
2014-8-29,73,64,58,60,58,56,92,80,57,28.02,27.96,3,1,7,0.00
2014-8-30,55,54,53,54,53,52,98,98,97,28.06,28.05,0,0,2,0.00
2014-8-31,71,70,68,70,69,67,98,97,96,27.76,27.73,1,0,3,0.11
2014-9-1,82,70,64,70,66,64,99,89,62,27.79,27.72,4,1,8,0.09
2014-9-2,82,73,61,73,68,60,98,88,72,27.71,27.51,6,2,10,0.12
2014-9-3,77,66,61,68,63,59,97,89,58,27.83,27.52,3,1,12,0.32
2014-9-4,80,63,52,65,58,51,98,86,61,27.98,27.89,4,1,8,0.01
2014-9-5,84,71,63,72,65,61,95,84,67,27.91,27.83,4,2,10,0.00
2014-9-6,77,63,60,69,61,58,94,92,76,27.73,27.58,4,1,16,0.03
2014-9-7,71,58,56,60,53,53,95,80,53,27.90,27.73,2,0,10,0.03
2014-9-8,71,58,50,58,52,49,98,83,52,28.18,28.04,4,1,8,0.01
2014-9-9,65,51,48,53,48,46,94,90,64,28.16,28.12,8,1,14,0.01
2014-9-11,70,64,60,66,59,55,90,83,80,27.71,27.57,5,3,15,0.02
2014-9-12,58,52,45,53,46,42,88,79,69,28.03,27.74,4,2,13,0.01
2014-9-13,52,51,49,51,48,45,97,89,79,28.07,27.90,7,3,10,0.23
2014-9-14,57,46,41,50,42,39,98,86,66,28.02,27.90,2,1,8,0.14
2014-9-15,62,51,37,46,43,36,97,78,47,28.03,27.86,3,1,7,0.00
2014-9-16,59,51,48,54,49,46,97,94,83,27.88,27.74,2,1,8,0.18
2014-9-18,63,50,39,53,46,37,98,84,68,27.95,27.76,4,1,8,0.01
2014-9-19,57,48,39,38,36,35,92,67,43,28.14,27.95,3,1,9,0.00
2014-9-21,71,66,63,64,62,60,91,86,79,27.70,27.65,4,2,8,0.00
2014-9-27,78,69,59,65,62,58,96,78,61,27.99,27.95,3,0,7,0.01
2014-9-28,73,57,52,66,55,51,98,94,80,27.98,27.80,2,0,5,0.01
2014-9-29,73,60,53,63,57,52,98,92,66,27.82,27.75,9,2,15,0.01
2014-9-30,59,56,55,55,54,53,96,93,87,27.83,27.79,5,2,9,0.01
2014-10-1,60,57,55,58,55,53,97,92,83,27.93,27.84,3,1,6,0.05
2014-10-2,69,57,53,58,54,52,97,91,64,27.98,27.88,6,1,9,0.01
2014-10-3,66,54,44,52,48,43,98,82,51,27.92,27.69,8,3,13,0.01
2014-10-4,56,55,51,55,54,50,97,97,92,27.69,27.31,8,4,13,1.28
2014-10-5,57,48,38,47,40,36,96,76,46,27.71,27.45,4,2,8,0.79
2014-10-6,62,48,36,47,40,35,96,77,48,27.85,27.71,5,2,14,0.00
2014-10-7,67,59,53,59,56,52,95,88,74,27.81,27.73,4,2,13,0.08
2014-10-8,65,59,54,56,50,41,96,73,55,27.59,27.46,7,4,18,0.60
2014-10-9,56,52,46,40,37,35,73,58,50,27.68,27.62,7,3,14,0.00
2014-10-10,55,48,42,42,40,35,91,75,56,27.90,27.78,6,1,15,0.00
2014-10-11,56,44,35,44,39,34,97,85,53,27.91,27.83,2,0,5,0.00
2014-10-12,56,47,39,41,38,36,91,75,52,28.07,28.01,3,1,9,0.00
2014-10-13,56,48,30,50,44,29,98,87,76,28.11,28.01,1,0,3,0.01
2014-10-14,65,60,53,60,57,50,95,89,84,28.01,27.91,3,1,7,0.00
2014-10-15,74,69,64,66,64,62,92,86,74,27.89,27.75,5,2,9,0.00
2014-10-16,67,66,66,65,65,65,95,93,92,27.75,27.70,4,4,7,0.00
2014-10-18,58,55,52,56,53,50,98,92,86,27.34,27.29,3,2,8,0.07
2014-10-19,44,40,37,38,34,28,89,79,66,27.72,27.51,4,2,18,0.04
2014-10-20,51,40,32,39,33,26,87,75,58,27.77,27.70,4,1,9,0.03
2014-10-21,50,47,42,48,45,38,97,93,85,27.83,27.73,1,0,3,0.07
2014-10-22,52,48,46,50,47,45,97,95,90,27.90,27.74,8,1,12,0.14
2014-10-23,47,47,46,46,46,45,97,97,96,27.74,27.60,3,0,5,0.35
2014-10-26,49,46,45,44,43,41,93,88,75,27.32,27.23,5,2,8,0.12
2014-10-28,51,50,49,46,46,45,88,86,82,27.74,27.73,5,2,7,0.03
2014-10-29,54,51,48,53,50,47,98,97,96,27.63,27.58,2,0,4,0.17
2014-11-2,38,35,33,27,23,16,79,61,43,27.60,27.53,8,4,23,0.02
2014-11-3,47,40,30,19,17,13,59,40,25,27.78,27.65,5,3,19,0.00
2014-11-4,53,45,33,39,36,28,82,69,59,27.87,27.74,3,1,5,0.00
2014-11-5,56,48,37,45,37,31,85,66,48,27.86,27.71,8,2,19,0.00
2014-11-6,47,40,34,40,37,32,97,88,71,27.86,27.39,4,1,9,0.23
2014-11-7,39,36,33,36,32,27,95,88,78,27.50,27.27,6,2,14,0.41
2014-11-8,41,35,30,28,25,22,76,65,52,27.69,27.60,5,1,11,0.01
2014-11-9,48,39,29,35,31,27,93,74,57,27.75,27.62,5,2,12,0.00
2014-11-10,52,37,28,37,32,27,96,84,55,27.95,27.76,3,0,3,0.00
2014-11-11,59,44,31,49,40,29,96,86,69,27.92,27.71,4,1,14,0.00
2014-11-12,58,47,40,54,42,31,97,84,66,27.78,27.59,6,2,12,0.00
2014-11-13,41,35,32,31,26,25,95,70,56,27.83,27.69,4,1,11,0.00
2014-11-14,36,32,27,31,25,21,96,79,55,27.80,27.66,4,1,10,0.02
2014-11-15,33,26,22,20,15,13,85,62,44,28.04,27.92,5,1,13,0.01
2014-11-16,35,28,20,24,21,16,88,74,58,28.05,27.90,2,0,6,0.00
2014-11-17,35,34,31,34,32,29,97,95,94,27.70,27.19,6,2,12,0.03
2014-11-18,34,26,20,31,14,7,90,61,45,27.54,27.21,11,6,24,0.07
2014-11-19,20,20,20,10,9,8,64,61,59,27.58,27.53,8,6,17,0.01
2014-11-20,28,26,24,13,12,12,60,56,50,27.62,27.58,5,3,15,0.00
2014-11-21,27,23,18,16,12,5,75,62,51,28.09,27.61,7,3,16,0.00
2014-11-22,38,27,14,28,15,8,84,60,40,28.09,27.73,5,2,10,0.00
2014-11-23,53,46,42,44,41,39,90,83,71,27.88,27.79,3,1,10,0.00
2014-11-24,63,57,41,59,53,40,97,88,79,27.59,27.27,10,5,24,0.62
2014-11-25,55,50,45,39,32,28,55,50,43,27.68,27.52,10,7,24,0.01
2014-12-2,26,25,25,22,22,21,89,87,81,28.32,28.24,11,8,16,0.00
2014-12-3,36,34,31,35,32,30,98,96,90,27.87,27.60,6,2,13,0.00
2014-12-4,32,28,19,28,18,12,88,67,53,28.24,27.91,10,3,20,0.01
2014-12-5,30,22,8,24,17,6,92,81,60,28.41,28.21,9,4,13,0.01
2014-12-6,34,32,29,33,31,28,97,94,91,28.06,27.92,4,0,13,0.07
2014-12-7,32,26,20,30,21,14,92,82,68,28.35,28.06,5,2,13,0.08
2014-12-8,22,17,1,19,10,-2,88,75,44,28.49,28.28,9,2,14,0.00
2014-12-9,35,31,23,34,30,21,97,95,90,28.24,27.56,3,1,10,0.06
2014-12-10,35,33,32,34,32,31,97,93,96,27.42,27.21,2,0,6,0.87
2014-12-11,33,32,32,32,31,31,97,97,96,27.29,27.21,1,0,3,0.45
2014-12-12,32,29,28,29,28,26,96,93,88,27.65,27.59,0,0,0,0.01
2014-12-13,33,29,27,30,27,25,94,92,88,27.65,27.56,3,1,11,0.01
2014-12-14,32,30,27,30,28,26,95,92,91,27.70,27.60,3,1,9,0.01
2014-12-15,30,28,25,28,25,24,94,90,86,27.89,27.72,4,1,12,0.00
2014-12-16,34,30,25,32,28,24,96,94,92,27.89,27.74,5,1,8,0.00
2014-12-19,26,24,20,22,20,17,88,85,80,27.91,27.66,5,2,13,0.01
2014-12-20,33,19,13,21,16,11,94,85,62,28.06,28.00,2,0,3,0.00
2014-12-21,31,27,23,27,25,21,96,93,83,28.11,28.04,1,0,2,0.00
2014-12-22,35,30,26,31,28,25,96,92,83,28.13,28.06,6,1,9,0.03
2014-12-23,36,34,33,35,33,32,97,96,94,28.04,27.94,6,2,10,0.05
2014-12-24,39,37,35,38,36,34,98,97,96,27.94,27.34,7,2,13,0.42
2014-12-26,39,39,39,32,31,31,75,74,74,27.89,27.88,5,4,10,0.00
2014-12-29,25,22,21,12,11,10,65,62,58,27.93,27.90,3,2,9,0.00
2014-12-30,22,16,11,8,2,-5,74,58,30,28.08,27.98,6,2,13,0.00
2014-12-31,22,13,5,12,6,0,87,72,49,28.01,27.75,6,1,14,0.00
2015-1-1,26,21,15,12,9,6,71,59,52,27.75,27.57,6,3,12,0.00
2015-1-2,30,28,26,20,16,12,73,61,54,27.90,27.77,6,4,16,0.00